THY5656 LTFO-OINN

Flight info

Callsign THY5656
Flight time 1h 32m
Altitude 37000
Route ALNOZ UT168 ERZ UW94 TAVUS UL851 AGINA P146 RST A416 ALKUP
Aircraft B738/M-SDE2E3FGHIRWXY/LB1

Departure

Time 2026-04-26 09:21
Airport Rize–Artvin Airport (LTFO)

Arrival

Time 2026-04-26 10:54
Airport Nowshahr Airport (OINN)
Time Latitude Longitude Altitude Speed Heading
2026-04-26 09:14 41.17554 40.84552 24 ft 0 kts 161°
2026-04-26 09:15 41.17560 40.84549 29 ft 1 kts 161°
2026-04-26 09:15 41.17567 40.84546 29 ft 1 kts 183°
2026-04-26 09:16 41.17574 40.84548 30 ft 1 kts 220°
2026-04-26 09:16 41.17579 40.84555 30 ft 1 kts 243°
2026-04-26 09:16 41.17582 40.84564 28 ft 1 kts 243°
2026-04-26 09:16 41.17584 40.84568 28 ft 0 kts 243°
2026-04-26 09:17 41.17583 40.84566 28 ft 2 kts 243°
2026-04-26 09:17 41.17589 40.84528 26 ft 6 kts 318°
2026-04-26 09:18 41.17650 40.84495 27 ft 14 kts 344°
2026-04-26 09:18 41.17761 40.84440 25 ft 21 kts 340°
2026-04-26 09:18 41.17815 40.84285 29 ft 24 kts 253°
2026-04-26 09:18 41.17755 40.84048 28 ft 30 kts 252°
2026-04-26 09:19 41.17692 40.83780 27 ft 30 kts 252°
2026-04-26 09:19 41.17627 40.83521 30 ft 29 kts 250°
2026-04-26 09:19 41.17531 40.83308 25 ft 21 kts 219°
2026-04-26 09:19 41.17524 40.83212 26 ft 8 kts 327°
2026-04-26 09:20 41.17558 40.83245 29 ft 6 kts 70°
2026-04-26 09:20 41.17586 40.83352 28 ft 33 kts 71°
2026-04-26 09:20 41.17741 40.83946 28 ft 102 kts 71°
2026-04-26 09:20 41.18040 40.85074 28 ft 159 kts 66°
2026-04-26 09:21 41.18440 40.86524 564 ft 168 kts 70°
2026-04-26 09:21 41.18846 40.88040 1182 ft 183 kts 69°
2026-04-26 09:21 41.19299 40.89670 1874 ft 186 kts 70°
2026-04-26 09:21 41.19701 40.91215 2842 ft 179 kts 70°
2026-04-26 09:22 41.20130 40.92916 3121 ft 208 kts 71°
2026-04-26 09:22 41.20725 40.94774 3297 ft 231 kts 54°
2026-04-26 09:22 41.21892 40.96270 3651 ft 242 kts 33°
2026-04-26 09:22 41.23409 40.97346 4006 ft 257 kts 25°
2026-04-26 09:23 41.25174 40.97918 4388 ft 270 kts 353°
2026-04-26 09:23 41.26958 40.97185 5183 ft 270 kts 336°
2026-04-26 09:23 41.28679 40.96153 5936 ft 274 kts 322°
2026-04-26 09:23 41.29832 40.94247 6753 ft 264 kts 289°
2026-04-26 09:24 41.30226 40.91890 7510 ft 263 kts 270°
2026-04-26 09:24 41.29965 40.89468 8146 ft 268 kts 251°
2026-04-26 09:24 41.29435 40.87124 8984 ft 268 kts 251°
2026-04-26 09:24 41.28894 40.84755 9801 ft 269 kts 250°
2026-04-26 09:25 41.28351 40.82354 10399 ft 278 kts 251°
2026-04-26 09:25 41.27773 40.79786 10562 ft 301 kts 251°
2026-04-26 09:25 41.27153 40.77021 10755 ft 323 kts 251°
2026-04-26 09:25 41.26193 40.74282 11157 ft 332 kts 232°
2026-04-26 09:26 41.24484 40.72219 11773 ft 336 kts 212°
2026-04-26 09:26 41.22292 40.71101 12337 ft 344 kts 192°
2026-04-26 09:26 41.19886 40.71087 13100 ft 352 kts 172°
2026-04-26 09:26 41.17525 40.71883 13836 ft 357 kts 168°
2026-04-26 09:27 41.15117 40.72820 14439 ft 363 kts 167°
2026-04-26 09:27 41.12681 40.73780 15062 ft 368 kts 167°
2026-04-26 09:27 41.10219 40.74725 15772 ft 370 kts 167°
2026-04-26 09:27 41.07729 40.75655 16469 ft 373 kts 168°
2026-04-26 09:28 41.05218 40.76584 17157 ft 377 kts 167°
2026-04-26 09:28 41.02768 40.77894 17803 ft 388 kts 150°
2026-04-26 09:28 41.00607 40.80081 18483 ft 393 kts 144°
2026-04-26 09:28 40.98456 40.82334 19060 ft 396 kts 146°
2026-04-26 09:29 40.96287 40.84537 19571 ft 400 kts 146°
2026-04-26 09:29 40.94056 40.86769 20151 ft 403 kts 146°
2026-04-26 09:29 40.91805 40.89010 20742 ft 406 kts 146°
2026-04-26 09:29 40.89538 40.91268 21276 ft 410 kts 146°
2026-04-26 09:30 40.87250 40.93549 21762 ft 414 kts 146°
2026-04-26 09:30 40.84782 40.95476 22267 ft 412 kts 163°
2026-04-26 09:30 40.82007 40.96387 22833 ft 411 kts 171°
2026-04-26 09:30 40.79195 40.97148 23326 ft 415 kts 171°
2026-04-26 09:31 40.76402 40.97907 24012 ft 412 kts 172°
2026-04-26 09:31 40.73605 40.98682 24535 ft 412 kts 171°
2026-04-26 09:31 40.70783 40.99475 24822 ft 418 kts 171°
2026-04-26 09:31 40.67926 41.00283 25172 ft 422 kts 171°
2026-04-26 09:32 40.65052 41.01103 25593 ft 423 kts 171°
2026-04-26 09:32 40.62172 41.01932 26042 ft 425 kts 171°
2026-04-26 09:32 40.59274 41.02765 26470 ft 427 kts 171°
2026-04-26 09:32 40.56366 41.03599 26842 ft 429 kts 171°
2026-04-26 09:33 40.53444 41.04435 27291 ft 429 kts 171°
2026-04-26 09:33 40.50566 41.05259 27703 ft 431 kts 172°
2026-04-26 09:33 40.47628 41.06097 27999 ft 434 kts 171°
2026-04-26 09:33 40.44672 41.06941 28341 ft 436 kts 171°
2026-04-26 09:34 40.41703 41.07788 28746 ft 437 kts 172°
2026-04-26 09:34 40.38725 41.08637 29115 ft 438 kts 172°
2026-04-26 09:34 40.35740 41.09486 29426 ft 440 kts 172°
2026-04-26 09:34 40.32753 41.10330 29940 ft 438 kts 172°
2026-04-26 09:35 40.29778 41.11167 30324 ft 438 kts 172°
2026-04-26 09:35 40.26793 41.12004 30635 ft 439 kts 172°
2026-04-26 09:35 40.23853 41.12828 30940 ft 439 kts 172°
2026-04-26 09:35 40.20870 41.13664 31306 ft 438 kts 172°
2026-04-26 09:36 40.17894 41.14499 31684 ft 436 kts 172°
2026-04-26 09:36 40.14929 41.15330 32007 ft 436 kts 172°
2026-04-26 09:36 40.11957 41.16161 32297 ft 436 kts 172°
2026-04-26 09:36 40.09006 41.16987 32728 ft 433 kts 173°
2026-04-26 09:37 40.06067 41.17810 33181 ft 430 kts 173°
2026-04-26 09:37 40.03140 41.18627 33488 ft 431 kts 173°
2026-04-26 09:37 40.00249 41.19756 33705 ft 442 kts 159°
2026-04-26 09:37 39.97671 41.22031 33985 ft 456 kts 142°
2026-04-26 09:38 39.95627 41.25165 34283 ft 466 kts 128°
2026-04-26 09:38 39.94218 41.29013 34448 ft 481 kts 111°
2026-04-26 09:38 39.93445 41.33285 34682 ft 485 kts 106°
2026-04-26 09:38 39.92791 41.37596 34953 ft 485 kts 105°
2026-04-26 09:39 39.92158 41.41903 35234 ft 483 kts 105°
2026-04-26 09:39 39.91508 41.46198 35495 ft 483 kts 105°
2026-04-26 09:39 39.90834 41.50474 35730 ft 482 kts 106°
2026-04-26 09:39 39.90139 41.54739 35978 ft 482 kts 106°
2026-04-26 09:40 39.89441 41.58947 36223 ft 481 kts 106°
2026-04-26 09:40 39.88732 41.63199 36443 ft 481 kts 106°
2026-04-26 09:40 39.88022 41.67461 36652 ft 482 kts 106°
2026-04-26 09:40 39.87313 41.71718 36969 ft 479 kts 106°
2026-04-26 09:41 39.86609 41.75944 37192 ft 479 kts 106°
2026-04-26 09:41 39.85175 41.84455 37155 ft 482 kts 106°
2026-04-26 09:42 39.83741 41.92945 37159 ft 479 kts 106°
2026-04-26 09:42 39.82318 42.01326 37167 ft 477 kts 106°
2026-04-26 09:43 39.80883 42.09743 37191 ft 476 kts 106°
2026-04-26 09:43 39.79440 42.18162 37185 ft 477 kts 106°
2026-04-26 09:44 39.77994 42.26576 37191 ft 477 kts 107°
2026-04-26 09:44 39.76537 42.35001 37208 ft 478 kts 107°
2026-04-26 09:45 39.75079 42.43398 37215 ft 480 kts 107°
2026-04-26 09:45 39.73602 42.51876 37210 ft 482 kts 107°
2026-04-26 09:46 39.72111 42.60396 37216 ft 484 kts 107°
2026-04-26 09:46 39.70622 42.68950 37221 ft 487 kts 106°
2026-04-26 09:47 39.69118 42.77480 37225 ft 489 kts 107°
2026-04-26 09:47 39.67578 42.86080 37201 ft 490 kts 107°
2026-04-26 09:48 39.66036 42.94707 37208 ft 491 kts 107°
2026-04-26 09:48 39.64453 43.03320 37217 ft 489 kts 110°
2026-04-26 09:49 39.62088 43.11480 37212 ft 486 kts 117°
2026-04-26 09:49 39.59547 43.19595 37230 ft 487 kts 115°
2026-04-26 09:50 39.57091 43.27789 37236 ft 487 kts 115°
2026-04-26 09:50 39.54621 43.35969 37235 ft 487 kts 115°
2026-04-26 09:51 39.52160 43.44076 37232 ft 487 kts 115°
2026-04-26 09:51 39.49679 43.52231 37211 ft 485 kts 115°
2026-04-26 09:52 39.47201 43.60351 37196 ft 485 kts 115°
2026-04-26 09:52 39.43480 43.72503 37161 ft 484 kts 115°
2026-04-26 09:53 39.41015 43.80522 37183 ft 483 kts 115°
2026-04-26 09:53 39.38533 43.88574 37173 ft 482 kts 115°
2026-04-26 09:54 39.36047 43.96618 37164 ft 482 kts 115°
2026-04-26 09:54 39.33559 44.04648 37143 ft 481 kts 115°
2026-04-26 09:55 39.31040 44.12650 37136 ft 480 kts 116°
2026-04-26 09:55 39.28430 44.20519 37140 ft 480 kts 117°
2026-04-26 09:56 39.25779 44.28429 37128 ft 480 kts 117°
2026-04-26 09:56 39.23135 44.36352 37120 ft 481 kts 117°
2026-04-26 09:57 39.20492 44.44279 37096 ft 481 kts 117°
2026-04-26 09:57 39.17866 44.52139 37100 ft 481 kts 117°
2026-04-26 09:58 39.15213 44.60059 37089 ft 481 kts 117°
2026-04-26 09:58 39.12554 44.67971 37083 ft 481 kts 117°
2026-04-26 09:59 39.09896 44.75856 37087 ft 480 kts 117°
2026-04-26 09:59 39.07258 44.83670 37064 ft 478 kts 117°
2026-04-26 10:00 39.04603 44.91507 37064 ft 478 kts 117°
2026-04-26 10:00 39.01946 44.99328 37058 ft 477 kts 117°
2026-04-26 10:01 38.99289 45.07129 37051 ft 476 kts 117°
2026-04-26 10:01 38.96646 45.14870 37041 ft 476 kts 117°
2026-04-26 10:02 38.93980 45.22655 37038 ft 476 kts 117°
2026-04-26 10:02 38.91292 45.30442 37021 ft 477 kts 118°
2026-04-26 10:03 38.88591 45.38227 37015 ft 478 kts 118°
2026-04-26 10:03 38.85883 45.46019 37028 ft 479 kts 118°
2026-04-26 10:04 38.83183 45.53774 37028 ft 480 kts 118°
2026-04-26 10:04 38.80460 45.61577 37048 ft 479 kts 118°
2026-04-26 10:05 38.77734 45.69367 37064 ft 479 kts 118°
2026-04-26 10:05 38.75007 45.77142 37067 ft 477 kts 118°
2026-04-26 10:06 38.72291 45.84906 37069 ft 478 kts 118°
2026-04-26 10:06 38.69608 45.92617 37095 ft 477 kts 118°
2026-04-26 10:07 38.66904 46.00372 37107 ft 477 kts 118°
2026-04-26 10:07 38.64193 46.08117 37097 ft 476 kts 118°
2026-04-26 10:08 38.61486 46.15827 37113 ft 475 kts 118°
2026-04-26 10:08 38.58799 46.23462 37131 ft 474 kts 118°
2026-04-26 10:09 38.56089 46.31138 37115 ft 474 kts 118°
2026-04-26 10:09 38.53369 46.38824 37119 ft 475 kts 118°
2026-04-26 10:10 38.50647 46.46498 37117 ft 474 kts 118°
2026-04-26 10:10 38.47939 46.54118 37109 ft 475 kts 118°
2026-04-26 10:11 38.45203 46.61772 37103 ft 474 kts 118°
2026-04-26 10:11 38.42421 46.69404 37088 ft 474 kts 118°
2026-04-26 10:12 38.39631 46.77031 37102 ft 475 kts 118°
2026-04-26 10:12 38.36862 46.84605 37090 ft 474 kts 118°
2026-04-26 10:13 38.34072 46.92221 37089 ft 474 kts 118°
2026-04-26 10:13 38.31304 46.99851 37089 ft 475 kts 118°
2026-04-26 10:14 38.28549 47.07488 37087 ft 474 kts 118°
2026-04-26 10:14 38.25791 47.15112 37087 ft 474 kts 118°
2026-04-26 10:15 38.23047 47.22665 37092 ft 474 kts 118°
2026-04-26 10:15 38.20277 47.30268 37068 ft 474 kts 118°
2026-04-26 10:16 38.17505 47.37856 37096 ft 473 kts 118°
2026-04-26 10:16 38.14728 47.45438 37105 ft 474 kts 118°
2026-04-26 10:17 38.11962 47.52971 37095 ft 474 kts 119°
2026-04-26 10:17 38.09171 47.60554 37108 ft 474 kts 119°
2026-04-26 10:18 38.06371 47.68143 37113 ft 475 kts 119°
2026-04-26 10:18 38.03563 47.75731 37106 ft 476 kts 119°
2026-04-26 10:19 38.00746 47.83330 37109 ft 476 kts 119°
2026-04-26 10:19 37.97947 47.90860 37101 ft 475 kts 119°
2026-04-26 10:20 37.95582 47.97207 37095 ft 475 kts 119°
2026-04-26 10:20 37.92301 48.05990 37093 ft 474 kts 119°
2026-04-26 10:21 37.89476 48.13532 37089 ft 474 kts 119°
2026-04-26 10:21 37.86646 48.21069 37086 ft 473 kts 120°
2026-04-26 10:22 37.83837 48.28534 37074 ft 473 kts 120°
2026-04-26 10:22 37.81005 48.36040 37076 ft 473 kts 120°
2026-04-26 10:23 37.78170 48.43534 37088 ft 473 kts 120°
2026-04-26 10:23 37.75327 48.51030 37063 ft 473 kts 120°
2026-04-26 10:24 37.72500 48.58470 37080 ft 473 kts 120°
2026-04-26 10:24 37.69637 48.65979 36498 ft 478 kts 120°
2026-04-26 10:25 37.68199 48.69738 36007 ft 474 kts 120°
2026-04-26 10:25 37.66766 48.73490 35387 ft 474 kts 120°
2026-04-26 10:25 37.65344 48.77215 34988 ft 468 kts 120°
2026-04-26 10:25 37.63952 48.80858 34520 ft 464 kts 120°
2026-04-26 10:26 37.62556 48.84502 34117 ft 460 kts 121°
2026-04-26 10:26 37.61166 48.88126 33595 ft 457 kts 120°
2026-04-26 10:26 37.59786 48.91722 33129 ft 453 kts 120°
2026-04-26 10:26 37.58422 48.95275 32734 ft 447 kts 120°
2026-04-26 10:27 37.57071 48.98776 32283 ft 443 kts 120°
2026-04-26 10:27 37.55726 49.02256 31860 ft 439 kts 120°
2026-04-26 10:27 37.54391 49.05708 31436 ft 436 kts 120°
2026-04-26 10:27 37.53069 49.09124 31021 ft 433 kts 120°
2026-04-26 10:28 37.51772 49.12474 30616 ft 429 kts 120°
2026-04-26 10:28 37.50468 49.15838 30198 ft 427 kts 120°
2026-04-26 10:28 37.49171 49.19182 29705 ft 423 kts 120°
2026-04-26 10:28 37.47884 49.22497 29271 ft 419 kts 120°
2026-04-26 10:29 37.46609 49.25779 28839 ft 415 kts 120°
2026-04-26 10:29 37.45344 49.29032 28417 ft 412 kts 120°
2026-04-26 10:29 37.44089 49.32252 27988 ft 408 kts 120°
2026-04-26 10:29 37.42842 49.35449 27567 ft 405 kts 120°
2026-04-26 10:30 37.41604 49.38622 27151 ft 402 kts 120°
2026-04-26 10:30 37.40377 49.41763 26740 ft 399 kts 120°
2026-04-26 10:30 37.39171 49.44846 26342 ft 397 kts 120°
2026-04-26 10:30 37.37955 49.47953 25946 ft 394 kts 120°
2026-04-26 10:31 37.36746 49.51037 25533 ft 392 kts 120°
2026-04-26 10:31 37.35546 49.54098 25128 ft 390 kts 120°
2026-04-26 10:31 37.34349 49.57148 24741 ft 389 kts 120°
2026-04-26 10:31 37.33153 49.60190 24316 ft 388 kts 119°
2026-04-26 10:32 37.31976 49.63188 23962 ft 386 kts 119°
2026-04-26 10:32 37.30796 49.66203 23594 ft 383 kts 119°
2026-04-26 10:32 37.29626 49.69198 23176 ft 380 kts 119°
2026-04-26 10:32 37.28466 49.72166 22772 ft 377 kts 119°
2026-04-26 10:33 37.27316 49.75106 22382 ft 374 kts 119°
2026-04-26 10:33 37.26174 49.78022 21988 ft 371 kts 119°
2026-04-26 10:33 37.25038 49.80919 21603 ft 368 kts 119°
2026-04-26 10:33 37.23910 49.83791 21226 ft 365 kts 119°
2026-04-26 10:34 37.22791 49.86639 20852 ft 363 kts 119°
2026-04-26 10:34 37.21692 49.89433 20489 ft 360 kts 119°
2026-04-26 10:34 37.20587 49.92238 20128 ft 358 kts 119°
2026-04-26 10:34 37.19487 49.95031 19769 ft 356 kts 119°
2026-04-26 10:35 37.18395 49.97798 19409 ft 353 kts 119°
2026-04-26 10:35 37.17308 50.00553 19060 ft 351 kts 119°
2026-04-26 10:35 37.16226 50.03292 18720 ft 350 kts 119°
2026-04-26 10:35 37.15150 50.06014 18363 ft 348 kts 119°
2026-04-26 10:36 37.14077 50.08725 17964 ft 346 kts 119°
2026-04-26 10:36 37.13025 50.11384 17578 ft 344 kts 119°
2026-04-26 10:36 37.11962 50.14065 17181 ft 343 kts 119°
2026-04-26 10:36 37.10904 50.16730 16792 ft 341 kts 119°
2026-04-26 10:37 37.09852 50.19378 16420 ft 339 kts 119°
2026-04-26 10:37 37.08804 50.22010 16040 ft 337 kts 119°
2026-04-26 10:37 37.07761 50.24629 15681 ft 335 kts 119°
2026-04-26 10:37 37.06722 50.27235 15310 ft 333 kts 119°
2026-04-26 10:38 37.05689 50.29822 14952 ft 332 kts 119°
2026-04-26 10:38 37.04673 50.32363 14600 ft 330 kts 119°
2026-04-26 10:38 37.03649 50.34915 14319 ft 326 kts 119°
2026-04-26 10:38 37.02637 50.37433 14030 ft 322 kts 119°
2026-04-26 10:39 37.01633 50.39930 13685 ft 320 kts 119°
2026-04-26 10:39 37.00639 50.42401 13345 ft 317 kts 118°
2026-04-26 10:39 36.99652 50.44851 13026 ft 314 kts 118°
2026-04-26 10:39 36.98674 50.47279 12681 ft 311 kts 118°
2026-04-26 10:40 36.97702 50.49691 12359 ft 309 kts 118°
2026-04-26 10:40 36.96751 50.52048 12033 ft 307 kts 118°
2026-04-26 10:40 36.95795 50.54416 11730 ft 305 kts 118°
2026-04-26 10:40 36.94842 50.56775 11398 ft 303 kts 118°
2026-04-26 10:41 36.93893 50.59122 11073 ft 301 kts 118°
2026-04-26 10:41 36.92951 50.61452 10770 ft 299 kts 118°
2026-04-26 10:41 36.92015 50.63764 10441 ft 297 kts 118°
2026-04-26 10:41 36.91086 50.66057 10171 ft 295 kts 118°
2026-04-26 10:42 36.90173 50.68342 9877 ft 293 kts 116°
2026-04-26 10:42 36.89405 50.70662 9566 ft 292 kts 112°
2026-04-26 10:42 36.88697 50.73025 9273 ft 290 kts 111°
2026-04-26 10:42 36.88002 50.75380 8971 ft 288 kts 111°
2026-04-26 10:43 36.87305 50.77726 8670 ft 287 kts 111°
2026-04-26 10:43 36.86608 50.80054 8375 ft 286 kts 111°
2026-04-26 10:43 36.85909 50.82370 8081 ft 284 kts 111°
2026-04-26 10:43 36.85211 50.84669 7781 ft 282 kts 111°
2026-04-26 10:44 36.84516 50.86952 7498 ft 281 kts 111°
2026-04-26 10:44 36.83824 50.89219 7227 ft 279 kts 111°
2026-04-26 10:44 36.83143 50.91446 6947 ft 277 kts 111°
2026-04-26 10:44 36.82458 50.93685 6672 ft 275 kts 111°
2026-04-26 10:45 36.81783 50.95887 6361 ft 268 kts 111°
2026-04-26 10:45 36.81128 50.98026 6049 ft 259 kts 111°
2026-04-26 10:45 36.80492 51.00097 5742 ft 253 kts 111°
2026-04-26 10:45 36.79867 51.02130 5441 ft 250 kts 111°
2026-04-26 10:46 36.79247 51.04146 5187 ft 249 kts 111°
2026-04-26 10:46 36.78629 51.06156 4943 ft 247 kts 111°
2026-04-26 10:46 36.78324 51.08217 4727 ft 239 kts 91°
2026-04-26 10:46 36.78353 51.10216 4530 ft 229 kts 90°
2026-04-26 10:47 36.78364 51.12178 4325 ft 224 kts 90°
2026-04-26 10:47 36.78366 51.14118 4118 ft 224 kts 91°
2026-04-26 10:47 36.78104 51.16009 3876 ft 224 kts 115°
2026-04-26 10:47 36.77390 51.17715 3700 ft 220 kts 117°
2026-04-26 10:48 36.76716 51.19398 3535 ft 212 kts 116°
2026-04-26 10:48 36.76076 51.21022 3376 ft 207 kts 116°
2026-04-26 10:48 36.75447 51.22627 3206 ft 206 kts 116°
2026-04-26 10:48 36.74836 51.24189 3027 ft 199 kts 116°
2026-04-26 10:49 36.74247 51.25694 2874 ft 188 kts 115°
2026-04-26 10:49 36.73686 51.27131 2709 ft 181 kts 115°
2026-04-26 10:49 36.73148 51.28508 2523 ft 172 kts 115°
2026-04-26 10:49 36.72580 51.29785 2348 ft 165 kts 126°
2026-04-26 10:50 36.71879 51.30903 2220 ft 165 kts 126°
2026-04-26 10:50 36.71406 51.31642 2110 ft 163 kts 126°
2026-04-26 10:50 36.70487 51.33085 2068 ft 155 kts 125°
2026-04-26 10:50 36.69909 51.34196 1941 ft 156 kts 115°
2026-04-26 10:51 36.69451 51.35414 1693 ft 154 kts 113°
2026-04-26 10:51 36.68700 51.37886 1192 ft 155 kts 108°
2026-04-26 10:51 36.68307 51.39185 836 ft 169 kts 107°
2026-04-26 10:52 36.67954 51.40605 599 ft 162 kts 104°
2026-04-26 10:52 36.67627 51.41820 556 ft 139 kts 104°
2026-04-26 10:52 36.67320 51.42978 482 ft 140 kts 106°
2026-04-26 10:52 36.67008 51.44123 223 ft 138 kts 101°
2026-04-26 10:53 36.66698 51.45277 18 ft 140 kts 104°
2026-04-26 10:53 36.66404 51.46382 -59 ft 127 kts 109°
2026-04-26 10:53 36.66191 51.47167 -61 ft 64 kts 109°
2026-04-26 10:54 36.66065 51.47703 -59 ft 9 kts 189°
2026-04-26 10:54 36.66071 51.47597 -60 ft 25 kts 288°
2026-04-26 10:54 36.66153 51.47300 -54 ft 41 kts 288°
2026-04-26 10:54 36.66209 51.47040 -62 ft 18 kts 245°
2026-04-26 10:55 36.66128 51.46972 -61 ft 12 kts 194°
2026-04-26 10:55 36.66105 51.46974 -65 ft 0 kts 164°